星链-30065 (STARLINK-30065 )

导读 | 星芒AI

STARLINK-30065 是 SpaceX 星链计划中的一颗低轨通信卫星,属于第 13 批组网发射的星链卫星之一。该卫星部署在约 550 公里的轨道高度,旨在为全球用户提供高速互联网服务。作为星链星座的一部分,它通过与其他卫星协同工作,提升网络覆盖与连接稳定性。星链项目致力于改善偏远地区的网络接入,推动全球数字化发展。

基本信息
目录编号:
55701
目录名称:
STARLINK-30065
国际标识:
2023-026G
轨道中心:
EARTH
卫星名称:
星链-30065
卫星全名:
星链-30065 (STARLINK-30065 )
卫星状态:
已陨落 最后检测时间 2024-07-25
发射日期:
2023-02-27 UTC
国别 :
美国 (US)
星等 :
--
轨道信息
数据来源 国际轨道数据
星历时间: 2024-07-25T17:09:46+0800
轨道信息已过期464天
半长轴: 6594.176km
偏心率: 0.0013044
轨道倾角: 42.989°
近地点辐角 278.566°
升交点赤经 67.311°
平近点角 230.708°
近地点: 207.439km
远地点: 224.643km
周期: 88.818分钟
每日圈数: 16.212949
详细信息
固有亮度:
5
最大亮度:
0.4
卫星平台:
Starlink v2.0 mini
覆盖范围:
全球
运营商:
太空探索技术公司
运营商所在国:
美国
制造商(研发单位):
太空探索技术公司
制造商所在国:
美国
使用方式:
暂无
卫星简介
星链(Starlink)计划是由太空探索技术公司(SpaceX)提出的一个巨型低轨卫星互联网星座项目,计划在2019年至2024年间在太空搭建由约1.2万颗卫星组成的“星链”网络,其中1584颗将部署在地球上空550千米处的近地轨道,并从2020年开始工作。该卫星仍在工作。